Home   Weather   Samara   Past weeks

Flag for Russia Past Weather in Samara, Russia — Yesterday and Last 2 Weeks

Now
66 °F

Sunny.


Feels Like: 66 °F
Forecast: 62 / 80 °F
Wind: No wind

Location: Samara

Current Time: Aug 21, 2017 at 8:36:31 am

Latest Report: Aug 21, 2017 at 8:00 am


Visibility: 10 mi

Pressure: 30.27 "Hg

Humidity: 64%

Dew Point: 54 °F

Location of SamaraLocation

Past Weather in Samara — Graph

°F

Samara Temperature Yesterday

Maximum temperature yesterday: 81 °F (at 3:00 pm)
Minimum temperature yesterday: 52 °F (at 3:00 am)
Average temperature yesterday: 69 °F

High & Low Weather Summary for the Past Weeks

 TemperatureHumidityPressure
High81 °F (Aug 20, 3:00 pm)100% (Aug 9, 4:00 am)30.33 "Hg (Aug 9, 4:00 am)
Low50 °F (Aug 15, 5:30 am)32% (Aug 18, 3:00 pm)29.86 "Hg (Aug 12, 3:30 pm)
Average67 °F63%30.16 "Hg
* Reported Aug 8 5:00 pm — Aug 21 7:30 am, Samara. Weather by CustomWeather, © 2017

Note: Actual official high and low records may vary slightly from our data, if they occured in-between our weather recording intervals... More about our weather records

Advertising

Samara Weather History for the Previous 24 Hours

Scroll right to see more
 ConditionsComfort  
Time TempWeatherWind HumidityBarometerVisibility
7:30 am
Mon, Aug 21
63 °FSunny.No wind73%30.27 "Hg10 mi
7:00 am61 °FSunny.1 mph83%30.27 "Hg10 mi
6:30 am55 °FSunny.No wind88%30.27 "Hg10 mi
6:00 am54 °FClear.No wind88%30.27 "Hg10 mi
5:30 am57 °FClear.1 mph82%30.27 "Hg10 mi
5:00 am57 °FClear.3 mph82%30.27 "Hg10 mi
4:30 am59 °FPassing clouds.3 mph77%30.27 "HgN/A
4:00 am57 °FClear.3 mph82%30.27 "Hg10 mi
3:30 am57 °FClear.3 mph82%30.27 "Hg10 mi
3:00 am59 °FClear.3 mph82%30.27 "Hg10 mi
2:30 am61 °FClear.3 mph77%30.27 "Hg10 mi
2:00 am63 °FClear.1 mph73%30.27 "Hg10 mi
1:30 am63 °FClear.1 mph73%30.24 "Hg10 mi
1:00 am64 °FClear.1 mph68%30.24 "Hg10 mi
12:30 am63 °FClear.3 mph77%30.24 "Hg10 mi
12:00 am64 °FClear.3 mph73%30.24 "Hg10 mi
11:30 pm
Sun, Aug 20
64 °FClear.3 mph68%30.27 "Hg10 mi
11:00 pm66 °FClear.3 mph64%30.27 "Hg10 mi
10:30 pm68 °FClear.1 mph60%30.27 "Hg10 mi
10:00 pm70 °FClear.1 mph57%30.27 "Hg10 mi
9:30 pm70 °FClear.1 mph57%30.27 "Hg10 mi
9:00 pm73 °FClear.1 mph50%30.27 "Hg10 mi
8:30 pm72 °FSunny.1 mph50%30.27 "Hg10 mi
8:00 pm70 °FSunny.3 mph57%30.27 "Hg10 mi
7:30 pm75 °FSunny.No wind44%30.27 "Hg10 mi
7:00 pm77 °FSunny.3 mph44%30.24 "Hg10 mi
6:30 pm77 °FSunny.3 mph44%30.27 "Hg10 mi
6:00 pm79 °FPassing clouds.6 mph39%30.27 "HgN/A
5:30 pm79 °FPassing clouds.6 mph39%30.27 "HgN/A
5:00 pm81 °FPassing clouds.6 mph37%30.27 "HgN/A
4:30 pm81 °FPassing clouds.6 mph37%30.27 "HgN/A
4:00 pm79 °FPassing clouds.3 mph37%30.27 "HgN/A
3:30 pm81 °FPassing clouds.3 mph34%30.27 "HgN/A
3:00 pm81 °FPassing clouds.6 mph34%30.27 "HgN/A
2:30 pm79 °FPassing clouds.3 mph37%30.30 "HgN/A
2:00 pm79 °FPassing clouds.6 mph37%30.27 "HgN/A
1:30 pm79 °FSunny.6 mph39%30.27 "Hg10 mi
1:00 pm79 °FSunny.3 mph37%30.30 "Hg10 mi
12:30 pm79 °FPassing clouds.3 mph37%30.30 "HgN/A
12:00 pm77 °FPassing clouds.6 mph42%30.30 "HgN/A
11:30 am75 °FPassing clouds.6 mph41%30.30 "HgN/A
11:00 am75 °FPassing clouds.6 mph41%30.30 "HgN/A
10:30 am75 °FSunny.1 mph41%30.33 "Hg10 mi
10:00 am73 °FSunny.1 mph47%30.33 "Hg10 mi
9:30 am72 °FSunny.1 mph50%30.33 "Hg10 mi
9:00 am68 °FSunny.1 mph56%30.33 "Hg10 mi
8:30 am64 °FSunny.1 mph64%30.33 "Hg10 mi
8:00 am63 °FSunny.No wind68%30.30 "Hg10 mi
Weather by CustomWeather, © 2017

See weather overviewHow to use our weather pages